Terminal Aerodrome Forecast
Issued by NWS

Home | Current Version | Previous Version | Text Only | Print | Product List | Glossary On
Versions: 1 2 3 4 5 6 7 8 9 10 11 12 13 14 15 16 17 18 19
000
FTUS41 KBGM 050159 AAA
TAFRME
TAF AMD
KRME 050159Z 0502/0524 VRB03KT P6SM BKN100
      TEMPO 0502/0504 3SM TSRA BR OVC025CB
     FM050900 28005KT P6SM -SHRA OVC025
     FM051300 29012G22KT P6SM BKN040=

USA.gov is the U.S. government's official web portal to all federal, state and local government web resources and services.